Temp
-7 -7 -7 -7 -7 -7 -7 -7 -7 -7 -7 -7 -7 -7 -7 -7 -7 -7 -7 -7 -7 -7 -7 -6 -6 -6 -6 -6 -6 -6 -6 -6 -6 -6 -7 -7 -7 -7 -7 -7 -7 -7 -7 -7 -7 -7 -7 -7 -7 -8 -8 -8 -8 -8 -8 -8 -8 -8 -8 -8 -8 -8 -8
-7 -7 -7 -7 -7 -7 -7 -7 -7 -7 -7 -7 -7 -7 -7 -7 -7 -7 -7 -7 -7 -7 -6 -6 -6 -6 -6 -6 -6 -6 -6 -6 -6 -6 -7 -7 -7 -7 -7 -7 -7 -7 -7 -7 -7 -7 -7 -7 -7 -7 -7 -7 -8 -8 -8 -8 -7 -7 -7 -8 -8 -8 -8
-7 -7 -7 -7 -7 -7 -7 -7 -7 -7 -7 -7 -7 -7 -7 -7 -7 -7 -7 -7 -7 -7 -6 -6 -6 -6 -6 -6 -6 -6 -6 -6 -6 -6 -6 -7 -7 -7 -7 -7 -7 -7 -7 -7 -7 -7 -7 -7 -7 -7 -7 -7 -7 -7 -7 -7 -7 -7 -7 -7 -7 -8 -8
-7 -7 -7 -7 -7 -7 -7 -7 -7 -7 -7 -7 -7 -7 -7 -7 -7 -7 -7 -7 -7 -7 -6 -6 -6 -6 -6 -6 -6 -6 -6 -6 -6 -6 -6 -7 -7 -6 -6 -7 -7 -7 -7 -7 -7 -7 -7 -7 -7 -7 -7 -7 -7 -7 -7 -7 -7 -7 -7 -7 -7 -7 -7
-7 -7 -7 -7 -7 -7 -7 -7 -7 -7 -7 -7 -7 -7 -7 -7 -7 -7 -7 -7 -7 -6 -6 -6 -6 -6 -6 -6 -6 -6 -6 -6 -6 -6 -6 -6 -6 -6 -6 -6 -6 -6 -6 -7 -7 -7 -7 -7 -7 -7 -7 -7 -7 -7 -7 -7 -7 -7 -7 -7 -7 -7 -7
-7 -6 -6 -7 -7 -7 -7 -7 -7 -7 -7 -7 -7 -7 -7 -7 -7 -7 -7 -6 -6 -6 -6 -6 -6 -6 -6 -6 -6 -6 -6 -6 -6 -6 -6 -6 -6 -6 -6 -6 -6 -6 -6 -6 -6 -7 -7 -7 -7 -7 -7 -7 -7 -7 -7 -7 -7 -7 -7 -7 -7 -7 -7
-7 -6 -6 -7 -7 -7 -7 -7 -6 -7 -7 -7 -7 -7 -7 -7 -7 -7 -7 -7 -7 -6 -6 -6 -6 -6 -6 -6 -6 -6 -6 -6 -6 -6 -6 -6 -6 -6 -6 -6 -6 -6 -6 -6 -6 -6 -6 -6 -6 -7 -7 -7 -7 -7 -7 -7 -7 -7 -7 -7 -7 -7 -7
-7 -6 -6 -6 -7 -7 -7 -7 -7 -7 -7 -7 -7 -7 -7 -7 -7 -7 -7 -7 -7 -7 -7 -6 -6 -6 -6 -6 -6 -6 -6 -6 -6 -6 -6 -6 -6 -6 -6 -6 -6 -6 -6 -6 -6 -6 -6 -6 -6 -6 -6 -6 -6 -6 -7 -7 -7 -7 -7 -7 -7 -7 -7
-7 -6 -6 -6 -6 -6 -7 -7 -7 -7 -7 -7 -7 -7 -7 -7 -7 -7 -7 -7 -7 -7 -7 -6 -6 -6 -6 -6 -6 -6 -6 -6 -6 -6 -6 -6 -6 -6 -6 -6 -6 -6 -6 -6 -6 -6 -6 -6 -6 -6 -6 -6 -6 -6 -6 -6 -6 -7 -7 -7 -7 -7 -7
-7 -6 -6 -6 -6 -6 -6 -7 -7 -7 -6 -7 -7 -7 -7 -7 -7 -7 -7 -7 -7 -7 -7 -6 -6 -6 -6 -6 -6 -6 -6 -6 -6 -6 -6 -6 -6 -6 -6 -6 -6 -6 -6 -6 -6 -6 -6 -6 -6 -6 -6 -6 -6 -6 -6 -6 -6 -6 -7 -7 -7 -7 -7
-7 -7 -6 -6 -6 -6 -6 -7 -7 -7 -6 -7 -7 -7 -7 -7 -7 -7 -7 -7 -7 -7 -6 -6 -6 -6 -6 -6 -6 -6 -6 -6 -6 -6 -6 -6 -6 -6 -6 -6 -6 -6 -6 -6 -6 -6 -6 -6 -6 -6 -6 -6 -6 -6 -6 -6 -6 -7 -7 -7 -7 -6 -7
-6 -6 -6 -6 -6 -6 -6 -6 -7 -6 -7 -7 -7 -7 -7 -6 -7 -7 -7 -7 -7 -7 -7 -6 -6 -6 -6 -6 -6 -6 -6 -6 -6 -6 -6 -6 -6 -6 -6 -6 -6 -6 -6 -6 -6 -6 -6 -6 -6 -6 -6 -6 -6 -7 -7 -7 -7 -7 -7 -7 -7 -6 -6
-6 -6 -6 -6 -6 -6 -6 -6 -6 -6 -6 -7 -7 -7 -7 -6 -7 -7 -7 -7 -7 -7 -7 -7 -7 -7 -6 -6 -6 -6 -6 -6 -6 -6 -6 -6 -6 -6 -6 -6 -6 -6 -6 -6 -6 -6 -6 -6 -6 -6 -6 -6 -7 -7 -6 -6 -6 -6 -6 -6 -6 -6 -6
-6 -6 -6 -6 -6 -6 -6 -6 -6 -6 -6 -7 -7 -7 -7 -7 -7 -7 -7 -7 -7 -7 -7 -7 -7 -7 -7 -7 -6 -6 -6 -6 -6 -6 -6 -6 -6 -6 -6 -6 -6 -6 -6 -6 -6 -6 -6 -6 -6 -6 -6 -6 -6 -6 -6 -6 -6 -6 -6 -6 -6 -6 -7
-6 -6 -6 -6 -6 -6 -6 -6 -6 -6 -6 -6 -6 -7 -7 -7 -7 -7 -7 -7 -7 -7 -7 -7 -7 -7 -7 -7 -7 -6 -6 -6 -6 -6 -6 -6 -6 -6 -6 -6 -6 -6 -6 -6 -6 -6 -6 -6 -6 -6 -6 -6 -6 -6 -6 -6 -6 -6 -6 -6 -6 -6 -7
-7 -7 -7 -6 -6 -6 -6 -6 -6 -6 -6 -6 -6 -6 -6 -7 -7 -7 -7 -7 -7 -7 -7 -7 -7 -7 -7 -7 -7 -7 -6 -6 -6 -6 -6 -6 -6 -6 -6 -6 -6 -6 -6 -6 -6 -6 -6 -6 -6 -6 -6 -6 -6 -6 -6 -6 -6 -6 -6 -6 -6 -6 -6
-7 -7 -7 -7 -7 -7 -6 -6 -6 -6 -7 -7 -6 -6 -6 -6 -6 -6 -6 -7 -7 -7 -7 -7 -7 -7 -7 -7 -7 -7 -7 -6 -6 -6 -6 -6 -5 -5 -6 -6 -6 -6 -6 -6 -6 -6 -6 -6 -6 -6 -6 -6 -6 -6 -6 -6 -6 -6 -6 -6 -7 -6 -6
-7 -7 -7 -7 -7 -7 -7 -6 -6 -6 -6 -7 -7 -6 -6 -6 -6 -6 -6 -6 -6 -7 -7 -7 -7 -7 -7 -7 -7 -7 -7 -7 -7 -6 -6 -6 -6 -6 -6 -6 -6 -6 -6 -6 -6 -6 -6 -6 -6 -6 -6 -6 -6 -6 -6 -6 -6 -6 -6 -6 -7 -6 -6
-7 -8 -7 -7 -7 -7 -7 -7 -6 -6 -6 -6 -7 -7 -7 -6 -6 -6 -5 -5 -6 -6 -6 -7 -7 -7 -7 -7 -6 -7 -7 -6 -7 -7 -6 -6 -6 -6 -6 -6 -6 -6 -6 -6 -6 -6 -6 -6 -6 -6 -6 -6 -6 -6 -6 -6 -6 -6 -6 -6 -6 -6 -6
-8 -8 -8 -8 -7 -7 -7 -7 -6 -6 -6 -6 -6 -7 -7 -7 -7 -6 -6 -6 -6 -6 -6 -6 -7 -7 -7 -6 -6 -6 -6 -6 -6 -7 -6 -6 -6 -6 -6 -7 -7 -7 -6 -6 -6 -6 -6 -6 -6 -6 -6 -6 -6 -6 -6 -7 -7 -6 -6 -6 -6 -6 -6
-8 -8 -8 -8 -7 -7 -7 -6 -6 -6 -6 -6 -6 -6 -6 -7 -7 -7 -6 -6 -6 -6 -6 -6 -6 -6 -6 -6 -7 -6 -6 -6 -6 -6 -6 -6 -6 -6 -6 -6 -7 -7 -6 -6 -6 -6 -6 -6 -6 -6 -6 -6 -6 -6 -7 -7 -7 -7 -7 -6 -6 -7 -6
-8 -8 -8 -8 -7 -7 -7 -7 -6 -6 -6 -6 -6 -6 -6 -6 -7 -6 -7 -7 -7 -7 -6 -6 -6 -6 -6 -6 -6 -6 -6 -6 -6 -6 -6 -6 -6 -6 -6 -6 -6 -6 -7 -6 -6 -6 -6 -6 -6 -6 -6 -6 -6 -7 -7 -7 -7 -7 -7 -7 -7 -7 -6
-8 -9 -8 -8 -8 -7 -7 -7 -6 -6 -6 -6 -6 -6 -6 -6 -6 -6 -6 -6 -6 -6 -6 -6 -6 -6 -6 -6 -6 -6 -6 -6 -6 -6 -6 -6 -6 -6 -6 -6 -6 -6 -7 -7 -7 -7 -7 -6 -6 -6 -6 -6 -6 -6 -7 -7 -7 -7 -7 -7 -6 -6 -6
-9 -9 -8 -8 -8 -8 -7 -7 -7 -7 -7 -7 -6 -6 -6 -6 -7 -7 -6 -6 -6 -6 -6 -6 -6 -6 -6 -6 -6 -6 -6 -6 -6 -6 -6 -6 -6 -7 -7 -7 -7 -7 -7 -7 -7 -7 -7 -7 -7 -7 -7 -6 -6 -7 -7 -7 -7 -7 -7 -7 -6 -6 -6
-9 -9 -8 -8 -8 -8 -8 -8 -7 -7 -7 -7 -7 -7 -7 -7 -7 -7 -6 -6 -6 -6 -6 -6 -6 -6 -6 -6 -6 -6 -6 -6 -7 -7 -6 -6 -7 -7 -7 -7 -7 -7 -7 -7 -7 -7 -7 -7 -7 -7 -7 -7 -7 -7 -7 -7 -7 -7 -7 -7 -7 -6 -6
-10 -9 -9 -8 -8 -8 -8 -8 -8 -8 -7 -7 -7 -7 -7 -7 -7 -7 -7 -6 -6 -6 -7 -7 -6 -6 -6 -6 -6 -6 -6 -7 -7 -6 -6 -7 -7 -7 -7 -7 -7 -7 -7 -7 -7 -7 -7 -7 -7 -7 -7 -7 -7 -7 -7 -7 -7 -7 -7 -7 -7 -7 -7
-10 -10 -9 -9 -8 -8 -8 -8 -8 -8 -8 -8 -7 -8 -8 -8 -8 -7 -7 -7 -7 -7 -7 -7 -6 -6 -6 -6 -6 -6 -7 -7 -7 -6 -7 -7 -7 -8 -8 -7 -7 -7 -7 -7 -7 -7 -7 -7 -7 -7 -7 -7 -7 -7 -7 -7 -7 -7 -7 -7 -7 -7 -7
-10 -10 -9 -9 -9 -9 -9 -9 -8 -8 -8 -8 -8 -8 -8 -8 -8 -8 -8 -7 -7 -7 -7 -7 -6 -6 -6 -6 -6 -7 -7 -6 -6 -7 -7 -7 -7 -8 -7 -7 -7 -7 -7 -7 -7 -7 -7 -7 -7 -7 -7 -7 -7 -7 -7 -7 -7 -7 -7 -7 -7 -7 -7
-9 -9 -9 -9 -9 -9 -9 -9 -9 -9 -8 -8 -8 -8 -8 -8 -8 -8 -8 -8 -7 -7 -7 -7 -7 -7 -7 -6 -6 -6 -7 -6 -6 -7 -7 -7 -7 -7 -7 -7 -7 -7 -7 -7 -7 -7 -7 -7 -7 -7 -7 -7 -6 -7 -7 -7 -7 -7 -7 -7 -7 -8 -8
-9 -9 -9 -9 -10 -10 -10 -10 -9 -9 -9 -8 -8 -8 -8 -8 -8 -8 -8 -7 -8 -8 -7 -7 -7 -7 -7 -7 -7 -7 -7 -7 -7 -7 -7 -7 -7 -7 -7 -7 -7 -7 -7 -7 -7 -7 -7 -7 -7 -7 -7 -7 -7 -7 -7 -7 -7 -7 -7 -8 -8 -8 -8
-9 -8 -9 -9 -9 -10 -10 -10 -10 -9 -9 -9 -8 -8 -8 -8 -8 -8 -8 -7 -8 -8 -7 -7 -7 -7 -7 -7 -7 -7 -7 -7 -7 -7 -7 -7 -7 -7 -7 -7 -7 -7 -7 -7 -7 -7 -7 -7 -7 -7 -7 -7 -7 -7 -7 -7 -7 -8 -8 -8 -8 -7 -7
-9 -8 -9 -9 -10 -10 -10 -10 -10 -9 -9 -9 -9 -8 -8 -8 -8 -8 -8 -8 -8 -8 -8 -8 -8 -7 -7 -7 -7 -7 -7 -7 -7 -7 -7 -7 -7 -7 -7 -7 -7 -7 -7 -7 -7 -7 -7 -7 -7 -7 -6 -7 -7 -7 -7 -8 -8 -8 -8 -8 -8 -8 -8
-9 -9 -9 -9 -10 -10 -10 -10 -10 -10 -9 -9 -9 -9 -9 -8 -8 -8 -8 -8 -8 -7 -8 -8 -8 -8 -8 -8 -7 -7 -7 -7 -7 -7 -8 -8 -8 -8 -8 -8 -8 -8 -8 -8 -8 -8 -8 -7 -7 -7 -7 -7 -8 -8 -8 -8 -8 -8 -8 -8 -8 -8 -8
-9 -9 -10 -10 -10 -10 -10 -10 -10 -10 -10 -9 -9 -9 -9 -9 -9 -9 -8 -8 -8 -8 -7 -8 -8 -8 -8 -8 -8 -8 -8 -8 -8 -8 -8 -8 -8 -8 -8 -8 -8 -8 -8 -8 -8 -8 -8 -8 -7 -7 -8 -8 -8 -8 -8 -8 -8 -8 -9 -9 -9 -9 -9
-9 -9 -10 -10 -11 -11 -11 -10 -10 -10 -10 -10 -10 -9 -9 -9 -9 -9 -9 -9 -9 -8 -8 -8 -8 -9 -9 -9 -8 -8 -8 -8 -8 -8 -8 -8 -8 -8 -8 -8 -8 -8 -8 -8 -7 -7 -8 -8 -8 -8 -8 -8 -8 -9 -8 -8 -8 -8 -9 -9 -9 -9 -9
-9 -9 -10 -10 -11 -11 -11 -10 -10 -10 -10 -10 -10 -10 -10 -10 -10 -10 -10 -10 -9 -9 -9 -9 -8 -8 -9 -9 -9 -9 -9 -9 -9 -9 -9 -9 -9 -9 -9 -8 -8 -8 -8 -8 -8 -8 -8 -8 -8 -8 -8 -8 -9 -9 -9 -9 -9 -9 -9 -9 -9 -9 -9
-10 -10 -10 -10 -10 -11 -11 -11 -10 -10 -10 -10 -10 -10 -10 -10 -10 -10 -10 -10 -10 -10 -9 -9 -9 -9 -9 -9 -9 -9 -9 -9 -9 -9 -9 -9 -9 -9 -9 -9 -9 -9 -9 -8 -8 -8 -8 -8 -8 -8 -8 -8 -9 -9 -10 -10 -10 -10 -9 -9 -9 -9 -9
-10 -10 -10 -10 -11 -11 -11 -11 -10 -10 -10 -10 -10 -10 -10 -10 -10 -10 -10 -10 -10 -10 -10 -10 -10 -10 -9 -9 -9 -9 -9 -9 -9 -9 -9 -9 -9 -9 -9 -9 -9 -9 -9 -9 -9 -9 -9 -8 -8 -8 -9 -9 -9 -10 -10 -10 -10 -10 -10 -10 -10 -10 -10
Height
5883 5884 5885 5886 5888 5889 5890 5892 5893 5895 5896 5897 5897 5897 5898 5898 5899 5900 5901 5902 5903 5904 5905 5906 5908 5909 5910 5912 5913 5914 5916 5917 5918 5919 5920 5920 5921 5922 5922 5923 5924 5925 5926 5927 5927 5928 5929 5929 5929 5930 5930 5930 5930 5931 5931 5932 5932 5933 5933 5934 5934 5935 5935
5882 5884 5884 5885 5886 5887 5888 5890 5892 5893 5895 5896 5897 5897 5897 5898 5898 5899 5900 5901 5902 5903 5904 5906 5907 5909 5910 5912 5913 5914 5916 5917 5918 5919 5920 5920 5921 5922 5923 5924 5925 5925 5926 5927 5928 5929 5929 5930 5930 5930 5931 5931 5931 5931 5932 5932 5932 5933 5933 5933 5934 5934 5935
5881 5883 5884 5884 5885 5886 5887 5888 5890 5892 5893 5895 5896 5896 5897 5897 5898 5899 5900 5900 5901 5903 5904 5905 5907 5908 5910 5911 5913 5914 5915 5916 5918 5919 5920 5921 5921 5922 5923 5924 5925 5926 5927 5928 5928 5929 5929 5930 5930 5931 5931 5931 5932 5932 5932 5932 5932 5933 5933 5934 5934 5934 5934
5879 5881 5882 5882 5882 5883 5884 5886 5888 5890 5892 5893 5895 5895 5896 5896 5897 5898 5899 5900 5901 5902 5903 5905 5906 5907 5909 5910 5912 5913 5915 5916 5917 5918 5919 5920 5922 5923 5924 5925 5926 5926 5927 5928 5928 5929 5929 5930 5930 5931 5931 5931 5932 5932 5932 5932 5933 5933 5933 5934 5934 5934 5934
5876 5878 5880 5881 5881 5881 5882 5884 5886 5888 5889 5891 5893 5894 5895 5896 5897 5897 5898 5899 5900 5902 5903 5904 5906 5907 5908 5909 5911 5913 5914 5915 5916 5918 5919 5920 5921 5923 5924 5925 5926 5926 5927 5928 5928 5929 5929 5930 5930 5931 5931 5931 5932 5932 5932 5932 5933 5933 5933 5933 5933 5934 5934
5873 5875 5877 5879 5881 5881 5881 5881 5883 5885 5887 5889 5892 5893 5894 5895 5896 5897 5898 5899 5900 5901 5903 5904 5905 5906 5907 5909 5910 5912 5913 5914 5916 5917 5918 5920 5921 5922 5923 5924 5925 5926 5927 5927 5928 5928 5929 5929 5930 5930 5931 5931 5932 5932 5932 5932 5932 5932 5933 5933 5933 5933 5934
5870 5872 5874 5877 5879 5880 5880 5880 5881 5883 5885 5887 5889 5891 5893 5894 5896 5896 5897 5898 5899 5900 5901 5903 5904 5905 5906 5908 5909 5911 5912 5914 5915 5916 5918 5919 5920 5921 5922 5923 5924 5925 5926 5927 5927 5928 5929 5929 5930 5930 5931 5931 5932 5932 5932 5932 5932 5932 5932 5932 5933 5933 5933
5867 5869 5871 5873 5875 5876 5878 5879 5880 5881 5883 5885 5887 5890 5892 5893 5895 5896 5897 5897 5898 5899 5900 5901 5903 5904 5905 5906 5908 5910 5911 5913 5914 5916 5917 5918 5919 5920 5921 5922 5923 5924 5925 5926 5927 5927 5928 5929 5929 5930 5931 5931 5932 5932 5932 5932 5932 5932 5932 5932 5932 5932 5932
5866 5867 5868 5870 5871 5873 5875 5877 5878 5880 5881 5883 5885 5888 5890 5892 5893 5895 5896 5896 5897 5898 5898 5899 5901 5902 5904 5905 5906 5908 5910 5912 5913 5915 5916 5918 5919 5920 5921 5922 5922 5923 5924 5925 5926 5927 5927 5928 5929 5929 5930 5930 5931 5931 5931 5932 5932 5932 5932 5932 5932 5932 5931
5863 5864 5865 5866 5868 5870 5872 5874 5875 5878 5880 5881 5883 5886 5888 5889 5891 5892 5894 5895 5895 5896 5897 5898 5899 5900 5902 5904 5905 5907 5908 5910 5912 5914 5915 5916 5918 5919 5920 5921 5922 5922 5923 5924 5925 5926 5927 5927 5928 5928 5929 5929 5930 5930 5931 5931 5931 5931 5932 5932 5932 5931 5931
5860 5860 5861 5863 5865 5866 5868 5870 5872 5875 5878 5880 5882 5884 5885 5887 5889 5890 5892 5893 5895 5896 5897 5897 5898 5899 5900 5901 5903 5905 5906 5908 5910 5912 5913 5915 5916 5917 5919 5920 5921 5922 5922 5923 5924 5925 5926 5926 5927 5927 5928 5929 5929 5930 5930 5931 5931 5931 5931 5931 5931 5931 5931
5856 5857 5858 5860 5863 5865 5866 5867 5868 5871 5874 5877 5879 5881 5883 5885 5887 5888 5890 5892 5894 5895 5897 5898 5899 5900 5900 5900 5901 5903 5905 5906 5908 5910 5911 5913 5914 5916 5917 5918 5920 5921 5922 5923 5923 5924 5925 5926 5926 5927 5928 5928 5929 5929 5929 5930 5930 5930 5930 5930 5930 5930 5930
5853 5854 5855 5857 5859 5862 5864 5866 5866 5868 5870 5874 5877 5879 5880 5883 5885 5886 5888 5890 5891 5892 5894 5895 5897 5899 5901 5901 5900 5901 5903 5904 5906 5907 5909 5911 5912 5914 5915 5917 5918 5919 5920 5921 5922 5923 5924 5924 5925 5926 5926 5927 5927 5927 5927 5927 5928 5928 5928 5928 5928 5929 5929
5850 5851 5852 5854 5855 5856 5859 5862 5864 5864 5866 5870 5874 5876 5878 5880 5881 5883 5885 5887 5888 5890 5891 5892 5893 5895 5898 5901 5901 5900 5901 5902 5904 5905 5907 5908 5910 5912 5913 5915 5916 5917 5918 5919 5920 5921 5922 5923 5923 5924 5924 5924 5925 5925 5925 5925 5925 5925 5925 5926 5926 5927 5927
5849 5849 5849 5850 5852 5853 5854 5856 5858 5861 5862 5864 5869 5873 5875 5876 5878 5880 5882 5884 5886 5887 5889 5891 5891 5892 5895 5898 5900 5900 5900 5901 5902 5903 5904 5906 5908 5909 5911 5912 5913 5915 5916 5917 5918 5918 5919 5920 5920 5920 5921 5921 5922 5922 5923 5923 5923 5923 5923 5923 5924 5924 5925
5847 5848 5848 5848 5848 5850 5851 5853 5855 5858 5859 5860 5863 5867 5871 5872 5874 5876 5879 5881 5882 5884 5887 5888 5890 5891 5892 5894 5897 5899 5899 5899 5899 5900 5902 5903 5905 5906 5908 5909 5911 5912 5913 5914 5915 5916 5916 5917 5917 5917 5918 5918 5918 5919 5919 5920 5920 5921 5921 5921 5922 5922 5922
5844 5845 5846 5846 5846 5847 5848 5850 5852 5854 5857 5859 5861 5863 5866 5868 5870 5872 5875 5877 5879 5881 5884 5886 5887 5889 5890 5891 5893 5895 5897 5898 5898 5899 5899 5900 5902 5904 5905 5906 5908 5909 5910 5911 5912 5913 5913 5914 5914 5915 5915 5915 5915 5916 5917 5917 5918 5918 5918 5919 5919 5919 5920
5842 5842 5842 5843 5845 5845 5845 5847 5849 5851 5855 5858 5861 5862 5863 5865 5867 5868 5871 5873 5876 5878 5880 5882 5884 5885 5887 5889 5890 5892 5894 5896 5897 5897 5898 5898 5900 5901 5903 5904 5905 5905 5906 5907 5908 5909 5910 5910 5911 5911 5911 5912 5912 5913 5914 5914 5915 5915 5915 5916 5917 5917 5917
5840 5840 5840 5840 5841 5843 5844 5845 5846 5849 5852 5856 5859 5862 5863 5864 5864 5865 5867 5870 5872 5875 5877 5879 5880 5882 5884 5885 5887 5889 5891 5893 5894 5895 5895 5896 5897 5898 5900 5901 5902 5903 5903 5903 5904 5905 5907 5907 5907 5908 5908 5909 5909 5910 5911 5911 5911 5912 5912 5913 5913 5914 5914
5838 5839 5839 5838 5838 5839 5841 5842 5844 5846 5850 5853 5856 5859 5861 5862 5863 5864 5866 5869 5871 5873 5874 5876 5878 5879 5881 5882 5883 5885 5887 5889 5890 5891 5892 5892 5893 5894 5895 5897 5898 5899 5900 5901 5901 5902 5903 5904 5905 5905 5906 5906 5906 5907 5908 5908 5908 5909 5909 5910 5910 5911 5912
5837 5838 5837 5836 5836 5836 5838 5839 5841 5844 5847 5849 5852 5854 5856 5858 5860 5863 5866 5868 5869 5871 5873 5874 5875 5877 5878 5879 5880 5882 5883 5884 5885 5885 5887 5888 5889 5890 5891 5892 5894 5895 5896 5897 5898 5899 5900 5901 5902 5903 5903 5903 5904 5904 5905 5905 5906 5906 5906 5907 5907 5908 5909
5836 5836 5835 5834 5834 5835 5836 5837 5838 5841 5843 5845 5848 5850 5852 5854 5857 5860 5864 5866 5868 5869 5871 5872 5872 5873 5875 5875 5876 5878 5879 5880 5880 5881 5881 5883 5885 5886 5886 5887 5889 5891 5893 5894 5896 5897 5898 5899 5899 5900 5901 5901 5902 5902 5902 5902 5903 5903 5904 5904 5904 5905 5905
5835 5835 5834 5833 5833 5834 5835 5835 5836 5838 5840 5842 5845 5847 5849 5851 5854 5857 5860 5864 5866 5866 5867 5867 5868 5869 5870 5871 5872 5873 5874 5874 5874 5875 5876 5878 5880 5881 5882 5885 5887 5889 5891 5892 5893 5894 5895 5896 5897 5897 5898 5898 5899 5899 5899 5899 5900 5900 5900 5900 5901 5901 5902
5834 5834 5834 5833 5833 5834 5835 5835 5836 5837 5838 5840 5842 5845 5847 5849 5851 5854 5857 5861 5862 5861 5860 5862 5863 5864 5865 5865 5866 5867 5869 5870 5871 5872 5875 5877 5879 5880 5883 5885 5886 5887 5887 5888 5889 5890 5891 5892 5893 5893 5894 5894 5895 5895 5895 5895 5896 5896 5896 5897 5897 5897 5898
5832 5833 5833 5833 5833 5834 5835 5836 5837 5838 5839 5840 5841 5842 5844 5846 5848 5851 5854 5856 5857 5855 5855 5857 5860 5860 5860 5861 5861 5862 5864 5867 5869 5870 5872 5874 5876 5878 5881 5882 5882 5882 5883 5884 5885 5886 5886 5887 5887 5888 5889 5890 5891 5891 5891 5891 5891 5891 5892 5892 5893 5893 5893
5831 5831 5831 5832 5834 5835 5836 5837 5838 5839 5839 5840 5841 5842 5844 5845 5846 5848 5850 5851 5852 5852 5853 5855 5856 5857 5856 5857 5857 5857 5858 5862 5864 5865 5866 5867 5869 5873 5875 5875 5876 5877 5878 5879 5880 5881 5882 5882 5883 5884 5885 5886 5886 5886 5886 5885 5886 5886 5886 5887 5887 5888 5889
5830 5830 5831 5832 5833 5835 5836 5837 5839 5839 5839 5841 5842 5843 5844 5845 5846 5847 5848 5848 5849 5850 5852 5852 5853 5853 5853 5853 5852 5851 5852 5856 5859 5859 5860 5862 5864 5867 5868 5869 5870 5871 5872 5874 5876 5877 5878 5879 5879 5881 5881 5882 5882 5882 5881 5881 5880 5880 5880 5880 5881 5882 5883
5828 5830 5830 5831 5833 5834 5835 5837 5838 5840 5840 5840 5841 5842 5844 5845 5846 5847 5848 5848 5848 5849 5849 5850 5851 5851 5850 5850 5849 5848 5848 5851 5853 5854 5856 5858 5859 5862 5863 5865 5866 5867 5868 5870 5871 5872 5873 5874 5875 5877 5877 5877 5877 5877 5877 5876 5875 5875 5875 5875 5876 5877 5878
5828 5829 5829 5830 5831 5833 5835 5837 5838 5840 5840 5841 5841 5841 5843 5844 5846 5847 5847 5848 5848 5848 5848 5849 5849 5849 5848 5848 5848 5846 5845 5846 5848 5850 5852 5853 5856 5858 5859 5861 5862 5864 5865 5866 5867 5868 5869 5869 5871 5872 5873 5873 5873 5872 5873 5872 5869 5869 5870 5871 5871 5872 5873
5827 5828 5828 5828 5829 5831 5833 5835 5837 5839 5840 5841 5841 5841 5842 5843 5844 5846 5846 5846 5847 5847 5847 5847 5847 5846 5846 5846 5846 5846 5844 5844 5845 5846 5848 5850 5852 5854 5856 5857 5859 5861 5862 5863 5864 5864 5864 5865 5867 5869 5869 5868 5866 5866 5866 5865 5864 5864 5865 5866 5866 5867 5867
5824 5826 5826 5827 5828 5830 5831 5833 5836 5838 5839 5840 5841 5841 5841 5842 5843 5844 5844 5844 5845 5845 5845 5845 5844 5843 5843 5844 5845 5846 5846 5845 5844 5845 5846 5848 5849 5851 5853 5854 5856 5857 5858 5859 5859 5859 5860 5862 5864 5865 5864 5861 5859 5859 5859 5859 5859 5860 5861 5861 5861 5862 5862
5821 5823 5824 5825 5827 5828 5830 5832 5834 5836 5837 5838 5839 5840 5840 5841 5841 5842 5842 5843 5843 5843 5843 5843 5843 5843 5842 5842 5843 5844 5845 5845 5845 5844 5845 5846 5847 5848 5850 5851 5851 5852 5853 5854 5855 5855 5856 5858 5859 5860 5859 5857 5855 5855 5855 5854 5855 5856 5856 5856 5857 5858 5857
5818 5820 5821 5823 5825 5827 5828 5830 5832 5834 5835 5837 5838 5838 5838 5838 5839 5840 5841 5841 5841 5841 5841 5841 5841 5842 5842 5842 5842 5842 5842 5843 5843 5844 5845 5845 5846 5846 5848 5848 5849 5849 5850 5851 5851 5851 5852 5854 5854 5855 5855 5854 5853 5853 5852 5851 5851 5852 5852 5853 5854 5855 5855
5816 5817 5819 5821 5823 5825 5827 5828 5830 5832 5833 5834 5836 5836 5836 5837 5837 5837 5838 5839 5839 5839 5839 5839 5839 5840 5840 5841 5841 5841 5841 5842 5842 5843 5843 5844 5844 5845 5846 5846 5847 5848 5848 5849 5849 5849 5850 5850 5850 5851 5851 5850 5850 5851 5851 5851 5850 5850 5851 5852 5853 5853 5852
5814 5815 5817 5819 5821 5823 5825 5826 5828 5829 5831 5832 5833 5834 5834 5835 5835 5835 5836 5837 5838 5838 5838 5838 5837 5837 5838 5839 5840 5840 5840 5840 5840 5841 5841 5842 5842 5843 5844 5844 5845 5845 5845 5846 5846 5847 5848 5848 5848 5848 5847 5846 5846 5847 5847 5848 5848 5848 5849 5850 5850 5850 5849
5813 5814 5815 5816 5818 5820 5822 5824 5825 5827 5828 5829 5830 5831 5831 5832 5833 5834 5834 5835 5835 5836 5836 5837 5837 5836 5836 5837 5837 5837 5838 5838 5838 5838 5839 5840 5840 5841 5841 5842 5842 5843 5843 5843 5844 5844 5845 5845 5845 5844 5844 5843 5842 5843 5843 5844 5844 5845 5845 5846 5846 5846 5846
5810 5812 5813 5814 5816 5818 5820 5821 5823 5824 5825 5826 5827 5828 5829 5829 5830 5831 5832 5833 5833 5834 5834 5835 5835 5835 5835 5835 5835 5835 5835 5836 5836 5837 5837 5838 5839 5839 5839 5840 5840 5841 5841 5841 5842 5842 5842 5843 5842 5842 5841 5840 5839 5839 5840 5840 5841 5842 5842 5842 5842 5842 5842
5808 5809 5810 5812 5813 5815 5817 5819 5820 5822 5822 5823 5824 5825 5826 5827 5827 5828 5829 5830 5831 5832 5832 5833 5833 5834 5834 5834 5834 5834 5834 5834 5835 5835 5836 5836 5837 5837 5838 5838 5839 5839 5839 5839 5839 5839 5840 5840 5839 5839 5839 5838 5837 5837 5837 5837 5838 5838 5838 5838 5838 5838 5838
Wind_Speed
21 20 20 20 18 17 16 15 13 13 12 11 12 12 13 13 13 13 13 14 14 14 15 16 16 17 17 17 16 16 15 14 13 13 13 13 14 13 12 12 11 10 9 9 9 10 10 10 10 10 9 7 7 6 6 6 7 7 6 6 6 6 7
19 20 20 20 19 18 17 16 15 14 13 12 13 13 13 14 14 14 14 15 15 15 16 16 16 16 16 16 16 15 15 14 14 14 13 13 13 13 12 11 10 9 9 8 8 9 9 9 10 10 10 8 7 7 6 5 5 5 5 5 5 6 6
16 19 19 19 19 19 19 18 17 16 15 14 14 15 15 15 16 16 16 16 16 15 16 17 17 17 16 16 15 15 15 14 14 14 14 14 13 13 12 11 10 10 8 8 7 8 8 8 8 9 9 9 8 7 6 5 5 5 5 5 5 6 6
15 17 19 20 22 22 21 21 20 19 17 16 15 16 16 17 17 17 17 17 17 17 17 17 17 17 17 16 16 15 15 15 15 15 14 14 14 13 12 12 11 10 9 8 7 7 7 7 7 7 7 8 8 8 7 6 5 5 5 5 5 5 5
17 18 19 20 23 24 23 23 22 21 20 18 17 16 17 17 17 18 18 18 18 17 17 17 17 18 17 17 17 16 16 16 15 15 15 14 14 13 13 12 11 10 9 8 7 6 6 6 6 6 6 6 6 6 7 7 6 5 5 4 4 4 4
18 19 19 20 22 23 23 24 25 24 22 20 18 17 17 17 18 19 19 19 19 18 18 18 18 18 18 17 17 17 16 16 16 16 15 15 14 14 13 12 11 9 8 8 7 6 5 5 6 6 5 5 4 4 4 5 6 6 5 4 3 3 4
18 19 20 21 22 23 24 25 26 26 25 23 21 19 18 18 18 19 19 19 19 19 20 20 19 19 19 19 18 17 17 17 17 16 16 15 15 14 13 12 11 9 8 7 6 6 5 5 5 5 5 4 4 3 3 3 4 5 5 5 3 2 3
20 19 19 20 22 23 24 25 26 27 27 26 23 20 19 19 19 18 19 19 20 20 21 21 21 21 20 20 19 18 18 17 17 17 17 16 15 14 13 12 11 9 8 7 6 5 5 5 5 5 5 4 3 3 2 1 2 2 3 4 4 3 2
20 20 19 18 20 22 23 24 27 29 28 26 24 23 22 20 20 20 19 19 20 21 23 23 23 22 22 22 21 20 19 18 18 17 17 16 16 15 13 12 11 10 9 8 7 6 5 5 5 6 5 5 5 5 4 3 1 0 1 2 2 2 1
20 20 20 20 21 23 22 24 29 30 29 27 25 25 24 22 22 21 20 20 20 22 24 24 25 24 23 23 22 22 21 19 18 18 17 17 16 15 14 13 11 11 10 9 8 7 7 7 7 7 7 7 7 7 6 5 4 3 2 2 2 2 2
21 22 22 22 24 25 24 25 29 31 29 28 27 25 25 24 23 22 21 20 21 21 22 23 25 26 26 25 24 23 22 21 20 19 18 17 17 16 15 14 13 12 12 10 10 9 9 9 8 8 8 8 8 8 7 7 6 6 6 6 6 6 6
23 24 24 22 23 25 25 26 29 30 30 30 29 27 26 25 24 23 22 21 20 20 19 20 22 24 25 25 25 24 23 22 21 20 19 18 18 17 16 15 15 14 13 13 12 11 11 11 10 10 9 9 9 9 9 9 9 9 10 10 10 10 10
23 25 24 21 20 23 26 27 29 31 31 31 30 29 27 25 24 23 22 22 22 21 19 19 20 22 24 25 25 25 24 23 22 21 20 20 19 18 18 17 17 16 16 15 15 14 13 13 12 12 12 11 11 11 11 11 12 12 13 13 14 14 13
22 22 22 21 21 21 25 29 32 33 33 31 31 31 29 26 25 25 24 24 24 23 22 22 22 22 23 24 25 25 24 23 23 22 21 21 20 19 19 19 18 18 18 17 17 16 16 15 15 15 15 15 15 15 15 15 15 15 15 16 16 15 15
20 18 17 18 20 21 25 32 36 36 34 31 31 31 30 29 28 27 26 25 24 24 24 24 24 24 23 22 23 24 24 24 24 24 23 23 22 21 21 20 20 20 20 20 20 19 19 19 19 19 19 19 18 17 17 17 17 17 17 16 15 15 15
19 18 17 17 19 22 26 31 36 37 36 34 32 31 30 31 31 30 29 27 27 27 25 24 24 25 23 21 21 23 24 24 24 25 25 25 25 24 23 23 22 22 22 22 22 22 22 22 21 21 21 20 20 19 19 19 18 19 19 17 16 15 14
20 22 22 20 19 22 25 29 34 37 37 36 36 34 32 31 32 33 32 31 30 29 28 26 26 26 25 22 21 21 22 23 23 24 25 26 26 25 25 24 24 24 24 24 24 23 24 24 23 23 22 22 22 22 21 21 20 20 19 17 17 16 14
20 22 23 22 22 23 25 28 33 36 36 35 35 36 34 32 32 33 34 34 33 32 31 29 28 29 28 24 21 21 22 22 23 23 24 24 25 25 25 25 25 25 25 26 26 25 25 25 25 24 24 23 23 22 21 21 21 20 18 16 16 17 16
19 18 17 18 21 23 24 27 31 35 36 35 34 35 34 33 33 34 34 34 34 33 32 31 31 31 29 26 24 23 23 23 23 24 24 24 25 25 25 25 25 25 25 26 26 26 26 26 25 24 23 23 22 20 18 18 20 20 20 18 18 18 18
19 17 15 16 19 22 25 26 29 33 37 37 37 37 36 34 34 33 31 31 32 32 32 33 33 32 30 28 27 26 26 26 25 26 26 26 26 26 25 25 25 25 25 25 25 25 25 25 25 23 22 22 21 20 18 17 18 20 21 21 20 20 20
20 19 19 19 19 21 24 26 27 29 34 39 41 40 38 37 36 33 30 31 32 32 31 31 32 32 31 30 30 30 29 29 29 29 29 29 29 29 28 27 26 26 26 25 25 24 24 24 24 23 22 22 21 20 19 18 18 19 20 22 22 22 22
20 21 23 23 21 19 19 22 25 27 31 35 38 40 39 38 38 35 33 32 32 30 30 29 30 32 33 33 34 32 31 31 31 32 32 32 31 31 31 30 29 28 27 26 25 24 23 23 23 24 23 23 22 22 22 21 20 20 20 21 22 23 23
20 18 19 21 21 18 14 12 15 22 27 30 32 35 37 38 39 38 36 34 32 31 32 32 32 33 35 37 37 35 34 35 35 34 35 34 33 33 33 31 30 29 27 26 25 24 24 24 24 24 24 24 24 24 24 24 23 23 23 23 24 24 25
24 19 16 16 18 16 12 8 7 11 16 21 24 28 33 35 37 38 37 35 33 33 35 35 35 35 37 38 39 38 38 40 38 35 34 35 35 34 32 29 30 30 28 27 26 25 25 24 25 25 26 25 25 25 26 27 27 27 27 27 27 27 28
26 23 18 16 15 14 12 9 7 7 8 10 12 16 23 30 34 36 37 36 36 37 36 35 35 37 39 40 40 40 40 41 39 36 34 36 38 36 33 31 32 32 31 30 29 28 27 27 28 28 27 26 26 27 29 30 30 31 31 31 31 31 30
23 23 19 16 14 12 11 9 7 6 7 7 7 7 10 17 25 31 34 36 36 34 31 29 30 34 38 40 42 43 42 40 39 39 38 39 40 38 35 34 34 34 34 33 32 31 31 30 30 30 29 29 29 31 32 33 33 34 35 34 34 34 34
22 21 15 12 11 9 8 8 6 6 6 6 7 6 5 6 9 15 21 27 29 28 24 23 24 26 30 34 38 42 43 41 40 41 42 41 40 40 37 36 36 37 36 35 34 34 33 32 32 32 32 31 31 32 34 34 35 36 37 38 37 37 36
20 19 13 11 11 10 9 9 6 6 6 6 7 7 7 7 6 7 10 14 19 22 20 18 20 23 24 25 26 29 34 38 41 42 43 42 41 41 39 37 37 37 35 33 33 34 33 33 33 33 33 32 32 33 35 36 38 39 38 38 39 38 38
12 14 12 11 10 10 10 10 8 7 7 7 7 6 6 7 7 8 10 11 14 17 17 16 18 20 16 11 12 14 17 25 35 41 43 43 43 41 38 36 36 36 34 32 32 33 33 33 32 32 32 32 33 34 36 38 40 40 39 39 39 39 39
8 8 7 7 8 9 10 10 9 9 8 9 9 8 7 6 6 7 9 11 13 16 18 18 21 21 14 8 10 10 6 7 17 29 36 38 39 39 37 35 34 33 31 31 32 34 34 33 32 31 31 34 36 38 38 40 41 39 38 39 41 41 41
10 7 5 6 8 9 10 11 11 10 10 10 10 10 9 8 8 8 9 10 11 13 15 16 18 20 18 14 13 14 11 9 8 11 19 25 31 35 36 34 32 32 33 34 35 36 36 35 33 31 32 36 36 32 30 32 35 33 32 35 38 39 39
15 12 9 8 9 11 12 12 12 12 11 11 11 11 10 10 10 10 11 11 12 12 12 12 11 12 14 14 15 16 17 15 12 9 8 11 16 20 23 23 23 25 28 31 32 33 33 32 29 29 32 32 24 16 12 14 16 15 17 21 24 23 22
17 15 12 11 12 13 13 14 14 13 12 12 11 11 11 10 10 11 10 11 13 14 14 13 11 9 9 11 13 14 14 13 12 11 10 9 8 9 10 11 11 12 14 17 20 22 25 25 22 21 24 22 15 9 10 9 7 6 10 13 15 16 16
16 15 14 14 14 15 16 16 16 14 13 13 12 11 11 10 10 10 10 10 11 13 14 13 11 9 8 9 10 11 11 9 8 8 9 9 9 8 8 9 10 10 11 12 13 15 19 23 24 22 21 21 19 16 14 13 12 13 15 17 18 19 20
13 13 14 15 16 17 18 18 18 17 15 14 13 12 12 11 11 10 10 10 9 10 11 12 11 10 9 9 9 10 10 10 9 8 7 8 8 9 9 9 10 11 12 13 13 15 17 21 25 26 26 27 27 23 19 18 18 19 19 20 22 22 23
12 12 13 15 17 19 20 20 20 19 18 16 15 14 13 13 12 12 11 11 11 10 10 11 11 11 11 11 10 10 10 11 11 10 9 9 9 10 10 11 11 12 14 14 15 17 19 21 24 26 27 27 26 22 19 19 18 18 20 21 22 24 25
16 15 15 16 18 19 21 22 22 21 20 19 18 17 16 15 14 14 13 13 12 12 12 12 12 13 13 13 12 12 12 13 13 13 12 12 12 12 12 13 14 15 17 18 19 20 22 23 25 26 28 28 27 24 22 20 19 19 21 22 24 26 26
17 17 16 17 19 20 21 22 23 23 22 21 20 19 18 18 17 16 16 16 15 15 15 15 15 15 15 15 15 15 15 15 15 15 15 15 16 16 16 17 18 19 21 22 24 25 25 26 26 27 27 27 27 26 25 24 23 23 24 26 27 27 27
Wind_Direction
201 203 203 203 202 199 196 196 200 205 207 202 195 188 181 179 179 180 181 177 175 175 173 173 172 169 167 164 160 156 153 152 153 155 155 151 145 142 140 138 134 131 126 119 115 114 114 113 111 111 114 119 127 138 148 153 160 170 175 177 183 189 192
206 205 207 207 203 200 197 196 199 205 207 202 197 195 188 184 183 183 185 182 179 180 178 176 176 173 172 170 166 161 159 160 162 162 161 158 153 149 147 144 141 137 133 128 124 121 119 117 112 108 106 108 114 124 135 144 152 164 171 179 191 199 202
212 205 208 212 209 204 199 196 196 202 207 202 198 200 196 190 188 186 187 186 183 184 183 180 179 177 176 175 173 169 166 167 169 169 167 165 162 157 153 151 149 147 145 142 138 133 130 126 120 112 106 102 101 105 116 131 142 156 167 179 191 198 201
221 208 203 208 211 208 202 197 195 199 206 205 201 205 204 196 191 189 189 190 188 188 188 185 182 181 180 180 179 176 175 175 176 176 173 171 170 166 162 160 158 157 156 155 152 146 142 138 133 125 115 106 99 97 101 112 127 145 160 173 186 196 201
226 217 207 208 212 211 204 198 196 199 205 207 205 208 210 203 196 193 191 191 192 192 192 190 188 186 184 185 185 184 183 182 182 181 179 178 177 175 173 171 169 167 164 161 159 156 152 149 147 142 134 123 114 105 100 101 107 121 139 158 177 196 207
233 229 223 218 216 215 211 203 199 200 205 208 206 209 213 208 201 198 195 193 193 194 195 195 193 191 190 189 189 189 189 188 187 186 186 185 184 183 182 181 179 177 171 165 163 162 163 161 160 159 157 149 138 127 114 105 100 102 110 127 158 191 207
236 236 234 228 222 219 219 214 205 201 204 208 207 207 211 211 206 203 200 196 193 195 198 199 197 195 195 195 194 193 192 191 191 190 191 192 191 191 191 189 188 186 180 176 173 173 175 175 174 174 175 173 163 153 141 122 104 95 92 95 109 154 190
233 235 235 233 228 220 218 220 215 206 204 206 206 206 209 212 210 207 205 201 197 197 200 201 200 199 198 198 199 198 197 196 194 194 196 198 199 198 199 198 196 194 191 189 190 191 188 188 192 193 195 196 194 189 187 168 116 99 90 85 86 103 147
233 235 232 229 226 221 218 221 220 214 210 206 204 204 207 210 212 211 209 206 202 201 202 202 202 203 203 202 202 203 203 203 202 201 202 205 206 206 207 207 205 205 206 203 208 213 211 209 210 210 211 211 213 216 220 225 221 177 86 67 64 72 114
236 237 235 228 224 222 221 220 217 215 214 210 206 205 205 208 211 213 212 209 209 208 205 203 202 203 205 206 206 206 207 208 209 210 212 213 214 214 216 217 217 219 221 220 222 226 228 229 227 227 229 228 229 234 240 249 259 272 292 317 335 340 329
232 236 237 236 230 223 218 214 214 215 213 212 212 209 206 207 211 214 214 214 216 217 213 210 207 205 205 206 209 209 208 210 212 215 218 220 222 223 224 225 227 229 232 234 235 236 238 241 243 245 246 247 249 252 258 268 279 288 298 306 312 316 314
226 230 234 240 240 232 222 212 209 212 212 211 213 213 210 209 210 214 217 217 220 222 222 222 220 217 212 208 208 211 211 211 213 215 219 223 227 229 232 234 236 238 241 243 245 246 246 248 252 254 255 256 258 263 269 275 281 287 293 297 301 305 307
227 229 231 235 236 232 228 217 207 209 212 210 211 215 214 211 210 214 217 219 221 221 221 223 224 224 225 220 212 211 212 213 214 216 219 223 227 231 235 237 240 243 245 248 250 251 252 254 256 257 257 256 255 257 262 267 274 280 286 290 293 298 302
231 232 233 234 229 224 222 216 209 210 211 209 210 212 212 210 209 211 215 219 222 222 221 222 219 215 222 228 223 216 214 215 217 218 220 223 226 230 235 238 241 244 246 248 250 251 252 253 253 252 251 251 251 254 259 265 271 278 284 289 293 297 300
232 234 237 237 231 223 215 211 211 211 210 209 210 211 210 209 208 209 212 216 221 224 224 224 220 211 211 223 229 225 220 217 218 220 221 223 225 228 232 236 240 242 244 246 248 248 248 248 249 251 251 252 255 258 261 266 270 275 281 285 288 292 295
238 242 243 236 229 224 218 214 212 211 210 210 210 211 211 210 208 207 208 210 215 221 224 223 220 215 210 214 223 228 227 223 222 223 223 225 226 227 230 234 238 242 244 246 247 249 251 253 255 258 259 259 259 260 261 264 267 271 273 275 278 284 289
244 251 251 242 230 224 221 219 215 213 215 213 207 206 209 212 212 210 207 208 211 215 220 221 218 216 215 214 217 225 229 228 227 228 228 230 230 230 230 232 235 240 244 246 247 249 252 255 256 257 258 260 262 264 266 267 268 269 270 271 275 276 276
244 254 255 246 235 228 224 221 217 216 220 220 211 205 205 208 214 215 211 210 211 211 214 217 216 215 217 221 221 223 228 230 230 230 231 233 234 234 234 235 236 238 241 244 245 247 249 252 254 255 256 259 262 265 267 269 269 267 264 264 268 269 266
240 252 259 251 238 231 229 228 223 218 220 223 221 216 210 207 210 214 214 214 214 213 212 212 214 216 222 229 228 225 227 230 232 234 233 232 232 233 235 237 238 239 241 243 245 246 247 249 252 255 257 259 261 263 265 267 267 265 259 256 261 267 268
234 242 256 258 244 232 228 230 228 223 221 223 224 222 218 214 213 212 212 215 218 218 215 213 216 221 228 232 231 228 227 227 230 234 235 234 232 230 230 233 236 238 240 242 245 247 249 250 251 252 255 257 260 262 264 263 262 260 258 257 261 268 272
236 243 250 250 245 235 228 227 228 227 225 225 224 221 219 219 219 218 215 215 218 220 219 218 219 224 229 231 231 231 230 228 229 231 234 236 235 232 229 229 232 235 238 241 244 246 249 251 252 252 252 254 258 262 265 263 259 257 257 259 262 267 271
242 247 245 239 233 230 228 228 230 230 227 226 225 222 221 221 222 222 220 218 219 220 221 223 225 227 230 231 232 233 233 233 233 233 233 235 237 237 234 232 232 233 237 242 245 247 250 252 254 254 254 255 258 262 265 264 260 258 257 258 261 263 265
236 234 233 227 219 215 215 218 223 225 226 226 225 224 225 227 226 225 223 223 225 226 224 225 227 229 231 233 232 233 235 237 237 238 237 235 235 237 237 236 237 238 240 245 248 249 252 255 258 259 259 259 260 262 265 266 263 260 259 260 261 261 262
236 230 227 219 209 205 201 187 185 201 213 222 226 226 228 229 228 227 226 226 230 232 230 228 228 230 233 235 236 235 236 236 237 241 243 240 237 237 238 239 242 243 243 246 248 249 252 255 258 259 261 262 265 267 267 267 266 265 264 264 264 263 263
242 235 229 216 201 197 196 186 174 174 181 196 213 221 225 227 227 227 228 229 233 237 237 235 234 235 237 240 242 243 240 236 236 240 243 240 237 237 239 241 243 245 246 247 247 248 249 251 252 253 256 260 263 265 266 266 266 267 267 267 267 266 266
239 228 222 214 202 196 198 196 190 189 182 176 178 192 211 221 225 226 226 227 231 236 239 239 237 238 240 242 244 243 240 235 234 236 238 237 234 234 236 239 242 245 246 247 247 249 251 252 253 253 255 257 259 260 260 262 263 264 264 265 266 266 266
231 223 229 234 227 221 222 219 208 204 210 209 203 204 208 212 219 222 221 219 221 224 229 233 233 235 241 243 243 241 238 233 232 233 234 233 232 233 234 237 241 242 243 245 248 250 252 254 254 256 258 260 260 261 261 261 261 261 262 262 262 263 264
229 229 252 263 245 234 234 237 233 225 230 237 228 223 227 226 220 222 223 222 220 221 227 236 235 232 236 243 247 245 238 233 231 232 232 232 233 234 236 240 242 241 242 247 251 253 253 254 256 258 260 261 263 264 264 265 264 263 263 263 264 264 265
228 237 261 269 251 234 225 227 233 228 227 237 240 235 232 228 223 225 232 237 237 236 243 249 240 229 227 243 265 261 240 231 230 229 230 233 235 236 238 240 239 239 242 248 253 255 256 256 257 260 262 266 269 269 266 264 263 264 265 267 267 268 270
230 239 253 260 256 245 231 225 225 221 218 224 231 235 235 231 228 230 236 245 251 253 257 259 255 252 256 275 290 291 284 255 238 230 229 234 236 236 239 240 239 240 243 247 251 254 256 257 258 260 265 267 266 263 259 256 256 262 267 268 268 269 270
224 226 237 248 246 243 239 234 230 227 225 224 224 225 225 223 223 226 234 247 258 265 269 271 272 276 279 278 279 282 288 299 286 243 233 235 237 238 240 242 243 245 246 247 249 251 254 257 258 259 264 264 259 255 256 254 253 260 270 268 265 265 265
220 225 236 243 237 234 235 236 234 231 230 229 227 226 225 223 224 226 230 240 249 259 269 276 281 287 286 279 276 277 278 283 291 288 265 247 241 239 239 240 242 243 244 243 243 245 247 250 255 258 259 259 256 249 253 253 248 261 277 273 267 268 271
222 225 228 230 232 232 232 233 235 233 230 229 228 229 230 229 230 231 230 234 241 249 257 265 270 274 278 278 277 279 283 284 283 285 286 280 273 265 259 257 256 253 251 247 244 243 237 232 237 245 246 248 254 253 250 253 256 282 298 293 290 297 303
218 218 217 218 223 228 230 231 233 233 232 230 229 229 232 233 235 237 234 230 234 243 251 259 264 263 259 262 267 272 278 281 278 277 277 275 275 276 273 273 271 268 266 261 255 252 243 233 235 245 250 261 279 286 281 284 294 301 305 305 300 300 301
207 208 208 211 216 223 228 231 232 231 231 231 229 229 231 232 233 237 238 236 233 234 240 248 256 258 254 253 255 260 266 271 274 274 271 266 266 265 263 265 265 262 262 260 252 250 251 250 253 261 269 280 290 297 298 299 300 300 301 300 296 294 295
212 213 211 211 213 219 225 229 230 230 230 230 229 229 230 232 234 234 235 238 238 235 234 237 243 250 255 257 258 259 262 267 269 270 268 261 256 254 253 253 254 250 247 245 241 239 244 252 259 267 276 286 294 298 298 296 292 288 287 286 286 286 287
222 222 219 216 216 219 224 228 230 231 230 230 229 229 229 231 235 236 237 237 239 240 241 239 239 241 246 251 256 259 260 263 265 266 265 261 256 253 250 247 246 245 242 243 245 248 252 258 265 271 278 285 291 294 293 288 282 276 274 275 278 280 282
221 221 221 221 222 224 227 231 234 235 235 233 231 231 230 231 234 237 239 240 240 240 242 243 243 244 245 247 250 254 257 260 262 262 262 261 259 256 253 250 247 246 247 250 255 260 263 266 269 273 277 281 286 288 287 284 280 277 276 276 277 278 280